Time,TemperatureF,DewpointF,PressureIn,WindDirection,WindDirectionDegrees,WindSpeedMPH,WindSpeedGustMPH,Humidity,HourlyPrecipIn,Conditions,Clouds,dailyrainin,SolarRadiationWatts/m^2,SoftwareType,DateUTC
2013-04-16 00:00:00,62.1,46.7,30.03,South,190,6.1,12.7,57,0.00,BKN,OVC,0.00,0.0,WeatherDisplay:10.37,2013-04-16 04:00:00,
2013-04-16 00:05:00,62.1,46.7,30.03,SSW,211,6.3,19.6,57,0.00,BKN,OVC,0.00,0.0,WeatherDisplay:10.37,2013-04-16 04:05:00,
2013-04-16 00:10:00,62.1,46.7,30.03,South,173,9.0,13.0,57,0.00,BKN,OVC,0.00,0.0,WeatherDisplay:10.37,2013-04-16 04:10:00,
2013-04-16 00:15:00,62.1,46.7,30.03,South,189,6.9,13.8,57,0.00,BKN,OVC,0.00,0.0,WeatherDisplay:10.37,2013-04-16 04:15:00,
2013-04-16 00:20:00,62.1,47.1,30.02,SSW,192,7.4,12.0,58,0.00,BKN,OVC,0.00,0.0,WeatherDisplay:10.37,2013-04-16 04:20:00,
2013-04-16 00:25:00,62.2,47.2,30.03,SW,232,6.9,18.4,58,0.00,BKN,OVC,0.00,0.0,WeatherDisplay:10.37,2013-04-16 04:25:00,
2013-04-16 00:30:00,62.2,47.2,30.03,SW,225,10.7,16.1,58,0.00,BKN,OVC,0.00,0.0,WeatherDisplay:10.37,2013-04-16 04:30:00,
2013-04-16 00:35:00,62.2,47.2,30.03,SSW,200,6.1,15.0,58,0.00,BKN,OVC,0.00,0.0,WeatherDisplay:10.37,2013-04-16 04:35:00,
2013-04-16 00:40:00,62.1,47.1,30.03,South,190,7.3,17.0,58,0.00,BKN,OVC,0.00,0.0,WeatherDisplay:10.37,2013-04-16 04:40:00,
2013-04-16 00:45:00,62.2,47.2,30.02,SW,222,8.9,16.1,58,0.00,BKN,OVC,0.00,0.0,WeatherDisplay:10.37,2013-04-16 04:45:00,
2013-04-16 00:50:00,62.2,47.2,30.02,SSW,192,6.0,15.0,58,0.00,BKN,OVC,0.00,0.0,WeatherDisplay:10.37,2013-04-16 04:50:00,
2013-04-16 00:55:00,62.1,47.6,30.02,South,171,8.8,17.3,59,0.00,BKN,OVC,0.00,0.0,WeatherDisplay:10.37,2013-04-16 04:55:00,
2013-04-16 01:00:00,62.2,47.7,30.02,SSW,200,7.6,15.0,59,0.00,BKN,OVC,0.00,0.0,WeatherDisplay:10.37,2013-04-16 05:00:00,
2013-04-16 01:05:00,62.1,47.6,30.02,SSE,162,10.0,19.6,59,0.00,OVC,,0.00,0.0,WeatherDisplay:10.37,2013-04-16 05:05:00,
2013-04-16 01:10:00,62.1,47.6,30.02,SSW,192,10.0,20.7,59,0.00,OVC,,0.00,0.0,WeatherDisplay:10.37,2013-04-16 05:10:00,
2013-04-16 01:15:00,62.1,47.6,30.02,SSW,198,7.8,20.7,59,0.00,OVC,,0.00,0.0,WeatherDisplay:10.37,2013-04-16 05:15:00,
2013-04-16 01:20:00,62.1,47.6,30.01,SSW,193,9.1,14.0,59,0.00,OVC,,0.00,0.0,WeatherDisplay:10.37,2013-04-16 05:20:00,
2013-04-16 01:25:00,62.0,47.5,30.02,SW,227,9.3,24.2,59,0.00,OVC,,0.00,0.0,WeatherDisplay:10.37,2013-04-16 05:25:00,
2013-04-16 01:30:00,62.0,48.0,30.01,South,189,4.1,19.6,60,0.00,OVC,,0.00,0.0,WeatherDisplay:10.37,2013-04-16 05:30:00,
2013-04-16 01:35:00,61.9,47.9,30.02,South,190,9.7,17.0,60,0.00,OVC,,0.00,0.0,WeatherDisplay:10.37,2013-04-16 05:35:00,
2013-04-16 01:40:00,61.9,47.9,30.02,South,188,5.0,11.5,60,0.00,OVC,,0.00,0.0,WeatherDisplay:10.37,2013-04-16 05:40:00,
2013-04-16 01:45:00,61.8,47.8,30.02,SSE,158,10.2,16.1,60,0.00,OVC,,0.00,0.0,WeatherDisplay:10.37,2013-04-16 05:45:00,
2013-04-16 01:50:00,61.8,47.8,30.02,SSW,192,9.4,19.6,60,0.00,OVC,,0.00,0.0,WeatherDisplay:10.37,2013-04-16 05:50:00,
2013-04-16 01:55:00,61.8,47.8,30.01,SSE,152,10.2,20.0,60,0.00,OVC,,0.00,0.0,WeatherDisplay:10.37,2013-04-16 05:55:00,
2013-04-16 02:00:00,61.7,48.1,30.01,SSW,196,6.6,16.1,61,0.00,OVC,,0.00,0.0,WeatherDisplay:10.37,2013-04-16 06:00:00,
2013-04-16 02:05:00,61.6,48.0,30.01,South,182,8.2,17.3,61,0.00,OVC,,0.00,0.0,WeatherDisplay:10.37,2013-04-16 06:05:00,
2013-04-16 02:10:00,61.6,48.0,30.01,SSW,193,8.6,20.7,61,0.00,OVC,,0.00,0.0,WeatherDisplay:10.37,2013-04-16 06:10:00,
2013-04-16 02:16:00,61.6,48.0,30.01,SSW,193,9.3,20.0,61,0.00,OVC,,0.00,0.0,WeatherDisplay:10.37,2013-04-16 06:16:00,
2013-04-16 02:21:00,61.5,47.9,30.01,SSW,210,6.4,16.1,61,0.00,OVC,,0.00,0.0,WeatherDisplay:10.37,2013-04-16 06:21:00,
2013-04-16 02:26:00,61.4,47.8,30.01,South,180,4.6,19.6,61,0.00,OVC,,0.00,0.0,WeatherDisplay:10.37,2013-04-16 06:26:00,
2013-04-16 02:31:00,61.3,48.2,30.01,South,176,7.9,19.6,62,0.00,OVC,,0.00,0.0,WeatherDisplay:10.37,2013-04-16 06:31:00,
2013-04-16 02:36:00,61.3,48.2,30.01,South,188,10.5,20.0,62,0.00,OVC,,0.00,0.0,WeatherDisplay:10.37,2013-04-16 06:36:00,
2013-04-16 02:41:00,61.2,48.1,30.01,SSW,202,11.7,18.4,62,0.00,OVC,,0.00,0.0,WeatherDisplay:10.37,2013-04-16 06:41:00,
2013-04-16 02:46:00,61.1,48.0,30.01,SSW,194,9.6,21.9,62,0.00,OVC,,0.00,0.0,WeatherDisplay:10.37,2013-04-16 06:46:00,
2013-04-16 02:51:00,61.1,48.0,30.01,South,182,12.0,23.0,62,0.00,OVC,,0.00,0.0,WeatherDisplay:10.37,2013-04-16 06:51:00,
2013-04-16 02:56:00,61.1,48.0,30.00,South,175,11.5,19.6,62,0.00,OVC,,0.00,0.0,WeatherDisplay:10.37,2013-04-16 06:56:00,
2013-04-16 03:01:00,60.9,48.2,30.00,SW,221,8.5,16.0,63,0.00,OVC,,0.00,0.0,WeatherDisplay:10.37,2013-04-16 07:01:00,
2013-04-16 03:06:00,60.8,48.1,30.00,South,172,7.9,15.0,63,0.00,OVC,,0.00,0.0,WeatherDisplay:10.37,2013-04-16 07:06:00,
2013-04-16 03:11:00,60.7,48.4,29.99,South,180,8.0,14.0,64,0.00,OVC,,0.00,0.0,WeatherDisplay:10.37,2013-04-16 07:11:00,
2013-04-16 03:16:00,60.7,48.4,30.00,SSW,202,8.1,19.6,64,0.00,OVC,,0.00,0.0,WeatherDisplay:10.37,2013-04-16 07:16:00,
2013-04-16 03:21:00,60.6,48.4,29.99,SSW,198,8.0,13.8,64,0.00,OVC,,0.00,0.0,WeatherDisplay:10.37,2013-04-16 07:21:00,
2013-04-16 03:26:00,60.5,48.3,30.00,SSE,163,11.5,21.0,64,0.00,OVC,,0.00,0.0,WeatherDisplay:10.37,2013-04-16 07:26:00,
2013-04-16 03:32:00,60.5,48.3,29.99,SSE,164,14.0,20.0,64,0.00,OVC,,0.00,0.0,WeatherDisplay:10.37,2013-04-16 07:32:00,
2013-04-16 03:37:00,60.4,48.6,29.99,SSW,210,11.3,18.0,65,0.00,OVC,,0.00,0.0,WeatherDisplay:10.37,2013-04-16 07:37:00,
2013-04-16 03:42:00,60.3,48.5,30.00,South,182,5.7,17.3,65,0.00,OVC,,0.00,0.0,WeatherDisplay:10.37,2013-04-16 07:42:00,
2013-04-16 03:47:00,60.2,48.4,30.00,South,171,9.1,13.8,65,0.00,OVC,,0.00,0.0,WeatherDisplay:10.37,2013-04-16 07:47:00,
2013-04-16 03:52:00,60.1,48.3,29.99,South,169,10.1,19.6,65,0.00,OVC,,0.00,0.0,WeatherDisplay:10.37,2013-04-16 07:52:00,
2013-04-16 03:57:00,60.1,48.7,29.99,South,178,8.9,16.1,66,0.00,OVC,,0.00,0.0,WeatherDisplay:10.37,2013-04-16 07:57:00,
2013-04-16 04:02:00,60.1,48.7,29.98,SSW,198,10.3,16.1,66,0.00,OVC,,0.00,0.0,WeatherDisplay:10.37,2013-04-16 08:02:00,
2013-04-16 04:07:00,60.1,48.7,29.98,SSW,206,8.2,15.0,66,0.00,OVC,,0.00,0.0,WeatherDisplay:10.37,2013-04-16 08:07:00,
2013-04-16 04:12:00,60.0,48.6,29.98,South,174,6.4,12.7,66,0.00,OVC,,0.00,0.0,WeatherDisplay:10.37,2013-04-16 08:12:00,
2013-04-16 04:17:00,60.0,48.6,29.98,South,189,9.7,17.3,66,0.00,OVC,,0.00,0.0,WeatherDisplay:10.37,2013-04-16 08:17:00,
2013-04-16 04:22:00,59.9,48.9,29.98,SSW,195,9.1,19.6,67,0.00,OVC,,0.00,0.0,WeatherDisplay:10.37,2013-04-16 08:22:00,
2013-04-16 04:27:00,59.9,48.9,29.99,South,169,9.2,17.3,67,0.00,OVC,,0.00,0.0,WeatherDisplay:10.37,2013-04-16 08:27:00,
2013-04-16 04:32:00,60.0,49.0,29.98,South,170,8.3,16.1,67,0.00,OVC,,0.00,0.0,WeatherDisplay:10.37,2013-04-16 08:32:00,
2013-04-16 04:37:00,60.0,49.0,29.99,SSW,202,5.8,16.1,67,0.00,OVC,,0.00,0.0,WeatherDisplay:10.37,2013-04-16 08:37:00,
2013-04-16 04:42:00,60.0,49.0,29.98,South,176,9.3,20.0,67,0.00,OVC,,0.00,0.0,WeatherDisplay:10.37,2013-04-16 08:42:00,
2013-04-16 04:47:00,60.0,49.0,29.98,SE,144,8.6,15.0,67,0.00,OVC,,0.00,0.0,WeatherDisplay:10.37,2013-04-16 08:47:00,
2013-04-16 04:52:00,60.0,49.0,29.98,South,181,12.5,21.0,67,0.00,OVC,,0.00,0.0,WeatherDisplay:10.37,2013-04-16 08:52:00,
2013-04-16 04:57:00,60.0,49.0,29.97,West,265,8.0,13.0,67,0.00,OVC,,0.00,0.0,WeatherDisplay:10.37,2013-04-16 08:57:00,
2013-04-16 05:02:00,60.0,49.0,29.97,South,181,8.8,15.0,67,0.00,OVC,,0.00,0.0,WeatherDisplay:10.37,2013-04-16 09:02:00,
2013-04-16 05:07:00,60.1,49.1,29.97,South,172,6.3,15.0,67,0.00,OVC,,0.00,0.0,WeatherDisplay:10.37,2013-04-16 09:07:00,
2013-04-16 05:12:00,60.1,49.1,29.98,SSE,164,5.5,13.8,67,0.00,OVC,,0.00,0.0,WeatherDisplay:10.37,2013-04-16 09:12:00,
2013-04-16 05:17:00,60.2,49.2,29.97,SSW,210,4.2,16.1,67,0.00,OVC,,0.00,0.0,WeatherDisplay:10.37,2013-04-16 09:17:00,
2013-04-16 05:22:00,60.1,49.1,29.97,South,175,14.4,23.0,67,0.00,OVC,,0.00,0.0,WeatherDisplay:10.37,2013-04-16 09:22:00,
2013-04-16 05:27:00,60.1,49.1,29.98,SSW,202,5.6,13.8,67,0.00,OVC,,0.00,0.0,WeatherDisplay:10.37,2013-04-16 09:27:00,
2013-04-16 05:32:00,60.1,49.1,29.98,SSE,164,7.4,13.8,67,0.00,OVC,,0.00,0.0,WeatherDisplay:10.37,2013-04-16 09:32:00,
2013-04-16 05:37:00,60.0,49.4,29.97,South,185,6.8,17.3,68,0.00,OVC,,0.00,0.0,WeatherDisplay:10.37,2013-04-16 09:37:00,
2013-04-16 05:42:00,59.9,49.3,29.97,South,190,12.4,20.0,68,0.00,OVC,,0.00,0.0,WeatherDisplay:10.37,2013-04-16 09:42:00,
2013-04-16 05:47:00,60.0,49.4,29.97,SSE,166,7.1,18.4,68,0.00,OVC,,0.00,0.0,WeatherDisplay:10.37,2013-04-16 09:47:00,
2013-04-16 05:52:00,60.0,49.4,29.97,SSW,210,11.6,21.0,68,0.00,OVC,,0.00,0.0,WeatherDisplay:10.37,2013-04-16 09:52:00,
2013-04-16 05:57:00,60.1,49.5,29.97,SSW,196,7.7,12.7,68,0.00,OVC,,0.00,0.0,WeatherDisplay:10.37,2013-04-16 09:57:00,
2013-04-16 06:02:00,60.0,49.4,29.96,South,180,7.3,19.6,68,0.00,BKN,OVC,0.00,0.0,WeatherDisplay:10.37,2013-04-16 10:02:00,
2013-04-16 06:07:00,60.1,49.5,29.96,SSW,193,9.3,14.0,68,0.00,BKN,OVC,0.00,0.0,WeatherDisplay:10.37,2013-04-16 10:07:00,
2013-04-16 06:12:00,60.2,49.6,29.97,South,178,5.7,15.0,68,0.00,BKN,OVC,0.00,0.0,WeatherDisplay:10.37,2013-04-16 10:12:00,
2013-04-16 06:17:00,60.2,49.6,29.97,SSW,195,7.2,19.6,68,0.00,BKN,OVC,0.00,0.0,WeatherDisplay:10.37,2013-04-16 10:17:00,
2013-04-16 06:22:00,60.2,49.6,29.97,South,173,11.7,18.4,68,0.00,BKN,OVC,0.00,0.0,WeatherDisplay:10.37,2013-04-16 10:22:00,
2013-04-16 06:27:00,60.2,49.6,29.97,South,184,6.7,17.3,68,0.00,BKN,OVC,0.00,0.0,WeatherDisplay:10.37,2013-04-16 10:27:00,
2013-04-16 06:32:00,60.3,49.7,29.97,South,189,10.6,19.6,68,0.00,BKN,OVC,0.00,0.0,WeatherDisplay:10.37,2013-04-16 10:32:00,
2013-04-16 06:37:00,60.5,49.9,29.97,SSW,201,9.3,19.6,68,0.00,BKN,OVC,0.00,0.0,WeatherDisplay:10.37,2013-04-16 10:37:00,
2013-04-16 06:42:00,60.6,49.6,29.97,South,184,6.0,17.3,67,0.00,BKN,OVC,0.00,5.0,WeatherDisplay:10.37,2013-04-16 10:42:00,
2013-04-16 06:47:00,60.6,49.6,29.97,SSW,196,6.9,15.0,67,0.00,BKN,OVC,0.00,7.0,WeatherDisplay:10.37,2013-04-16 10:47:00,
2013-04-16 06:52:00,60.7,49.7,29.97,SSE,156,7.1,15.0,67,0.00,BKN,OVC,0.00,9.0,WeatherDisplay:10.37,2013-04-16 10:52:00,
2013-04-16 06:57:00,60.8,49.8,29.97,SSW,195,10.9,19.0,67,0.00,BKN,OVC,0.00,16.0,WeatherDisplay:10.37,2013-04-16 10:57:00,
2013-04-16 07:02:00,60.9,49.9,29.97,SSW,210,12.1,19.6,67,0.00,BKN,OVC,0.00,12.0,WeatherDisplay:10.37,2013-04-16 11:02:00,
2013-04-16 07:07:00,61.0,50.4,29.97,South,180,8.6,17.3,68,0.00,BKN,OVC,0.00,21.0,WeatherDisplay:10.37,2013-04-16 11:07:00,
2013-04-16 07:12:00,60.9,50.3,29.97,South,184,5.9,22.0,68,0.00,BKN,OVC,0.00,28.0,WeatherDisplay:10.37,2013-04-16 11:12:00,
2013-04-16 07:17:00,60.9,50.3,29.97,SSW,207,7.0,18.4,68,0.00,BKN,OVC,0.00,44.0,WeatherDisplay:10.37,2013-04-16 11:17:00,
2013-04-16 07:23:00,60.9,50.3,29.97,South,178,10.4,14.0,68,0.00,BKN,OVC,0.00,51.0,WeatherDisplay:10.37,2013-04-16 11:23:00,
2013-04-16 07:28:00,60.9,50.3,29.97,South,187,9.0,19.6,68,0.00,BKN,OVC,0.00,74.0,WeatherDisplay:10.37,2013-04-16 11:28:00,
2013-04-16 07:33:00,61.0,50.4,29.97,South,186,8.4,19.6,68,0.00,BKN,OVC,0.00,69.0,WeatherDisplay:10.37,2013-04-16 11:33:00,
2013-04-16 07:38:00,61.2,50.6,29.97,South,186,9.5,20.7,68,0.00,BKN,OVC,0.00,100.0,WeatherDisplay:10.37,2013-04-16 11:38:00,
2013-04-16 07:43:00,61.3,50.6,29.98,SSW,192,9.9,20.7,68,0.00,BKN,OVC,0.00,81.0,WeatherDisplay:10.37,2013-04-16 11:43:00,
2013-04-16 07:48:00,61.5,50.8,29.98,SW,223,9.5,18.4,68,0.00,BKN,OVC,0.00,84.0,WeatherDisplay:10.37,2013-04-16 11:48:00,
2013-04-16 07:53:00,61.6,50.5,29.98,SW,217,11.0,18.4,67,0.00,BKN,OVC,0.00,40.0,WeatherDisplay:10.37,2013-04-16 11:53:00,
2013-04-16 07:58:00,61.7,51.0,29.98,South,178,10.8,16.0,68,0.00,BKN,OVC,0.00,67.0,WeatherDisplay:10.37,2013-04-16 11:58:00,
2013-04-16 08:03:00,61.7,51.0,29.98,SSW,200,7.3,16.1,68,0.00,OVC,,0.00,60.0,WeatherDisplay:10.37,2013-04-16 12:03:00,
2013-04-16 08:08:00,61.8,51.1,29.97,SSW,207,8.1,17.3,68,0.00,OVC,,0.00,62.0,WeatherDisplay:10.37,2013-04-16 12:08:00,
2013-04-16 08:13:00,62.0,50.9,29.98,SSW,202,10.2,15.0,67,0.00,OVC,,0.00,49.0,WeatherDisplay:10.37,2013-04-16 12:13:00,
2013-04-16 08:18:00,62.0,50.9,29.97,SSW,192,8.7,17.3,67,0.00,OVC,,0.00,42.0,WeatherDisplay:10.37,2013-04-16 12:18:00,
2013-04-16 08:23:00,62.1,51.0,29.98,South,180,9.0,17.3,67,0.00,OVC,,0.00,32.0,WeatherDisplay:10.37,2013-04-16 12:23:00,
2013-04-16 08:28:00,62.2,51.1,29.98,SSW,205,10.5,20.7,67,0.00,OVC,,0.00,32.0,WeatherDisplay:10.37,2013-04-16 12:28:00,
2013-04-16 08:33:00,62.3,51.2,29.98,SSW,201,6.4,20.7,67,0.00,OVC,,0.00,30.0,WeatherDisplay:10.37,2013-04-16 12:33:00,
2013-04-16 08:38:00,62.3,51.2,29.97,SSW,196,5.4,14.0,67,0.00,OVC,,0.00,35.0,WeatherDisplay:10.37,2013-04-16 12:38:00,
2013-04-16 08:43:00,62.2,51.1,29.97,SSE,158,7.8,12.7,67,0.00,OVC,,0.00,37.0,WeatherDisplay:10.37,2013-04-16 12:43:00,
2013-04-16 08:48:00,62.3,51.2,29.97,South,190,10.8,18.4,67,0.00,OVC,,0.00,47.0,WeatherDisplay:10.37,2013-04-16 12:48:00,
2013-04-16 08:53:00,62.4,51.3,29.97,SW,219,9.0,16.0,67,0.00,OVC,,0.00,58.0,WeatherDisplay:10.37,2013-04-16 12:53:00,
2013-04-16 08:58:00,62.5,51.4,29.96,South,190,6.1,14.0,67,0.00,OVC,,0.00,174.0,WeatherDisplay:10.37,2013-04-16 12:58:00,
2013-04-16 09:03:00,62.8,51.7,29.96,South,186,7.0,15.0,67,0.00,OVC,,0.00,163.0,WeatherDisplay:10.37,2013-04-16 13:03:00,
2013-04-16 09:08:00,63.1,51.6,29.97,SW,236,9.5,16.0,66,0.00,OVC,,0.00,134.0,WeatherDisplay:10.37,2013-04-16 13:08:00,
2013-04-16 09:13:00,63.4,51.8,29.97,SSW,209,6.2,16.1,66,0.00,OVC,,0.00,81.0,WeatherDisplay:10.37,2013-04-16 13:13:00,
2013-04-16 09:18:00,63.4,51.8,29.97,SSW,205,8.6,19.6,66,0.00,OVC,,0.00,58.0,WeatherDisplay:10.37,2013-04-16 13:18:00,
2013-04-16 09:23:00,63.4,51.8,29.97,SSW,211,7.7,19.6,66,0.00,OVC,,0.00,95.0,WeatherDisplay:10.37,2013-04-16 13:23:00,
2013-04-16 09:28:00,63.5,51.5,29.96,SSW,207,5.9,16.1,65,0.00,OVC,,0.00,127.0,WeatherDisplay:10.37,2013-04-16 13:28:00,
2013-04-16 09:33:00,63.7,51.7,29.95,SW,236,11.9,20.7,65,0.00,OVC,,0.00,209.0,WeatherDisplay:10.37,2013-04-16 13:33:00,
2013-04-16 09:38:00,64.0,52.0,29.96,SW,228,11.3,15.0,65,0.00,OVC,,0.00,151.0,WeatherDisplay:10.37,2013-04-16 13:38:00,
2013-04-16 09:43:00,64.3,51.9,29.96,South,184,6.8,13.8,64,0.00,OVC,,0.00,167.0,WeatherDisplay:10.37,2013-04-16 13:43:00,
2013-04-16 09:48:00,64.5,52.0,29.97,SSW,194,7.1,16.1,64,0.00,OVC,,0.00,90.0,WeatherDisplay:10.37,2013-04-16 13:48:00,
2013-04-16 09:53:00,64.6,52.1,29.97,SSW,196,9.0,21.0,64,0.00,OVC,,0.00,42.0,WeatherDisplay:10.37,2013-04-16 13:53:00,
2013-04-16 09:58:00,64.5,52.0,29.97,SW,222,8.2,15.0,64,0.00,OVC,,0.00,69.0,WeatherDisplay:10.37,2013-04-16 13:58:00,
2013-04-16 10:03:00,64.5,52.0,29.98,SSW,212,8.8,19.6,64,0.00,OVC,,0.00,28.0,WeatherDisplay:10.37,2013-04-16 14:03:00,
2013-04-16 10:08:00,64.4,52.0,29.98,SW,226,10.1,19.6,64,0.00,OVC,,0.00,23.0,WeatherDisplay:10.37,2013-04-16 14:08:00,
2013-04-16 10:13:00,64.3,52.3,29.99,WSW,247,8.6,21.9,65,0.00,OVC,,0.00,53.0,WeatherDisplay:10.37,2013-04-16 14:13:00,
2013-04-16 10:18:00,64.2,52.2,30.00,SW,221,11.2,20.0,65,0.00,OVC,,0.00,67.0,WeatherDisplay:10.37,2013-04-16 14:18:00,
2013-04-16 10:23:00,63.7,53.3,30.00,SW,225,12.6,22.0,69,0.00,OVC,,0.00,67.0,WeatherDisplay:10.37,2013-04-16 14:23:00,
2013-04-16 10:28:00,63.0,53.8,30.01,WSW,251,10.8,21.0,72,0.00,OVC,,0.00,35.0,WeatherDisplay:10.37,2013-04-16 14:28:00,
2013-04-16 10:33:00,62.0,54.0,30.01,SW,221,9.1,17.3,75,0.01,RA,OVC,0.01,37.0,WeatherDisplay:10.37,2013-04-16 14:33:00,
2013-04-16 10:38:00,60.8,53.9,30.01,SW,223,10.9,19.0,78,0.02,RA,OVC,0.02,30.0,WeatherDisplay:10.37,2013-04-16 14:38:00,
2013-04-16 10:43:00,60.0,53.8,30.01,SW,214,9.9,19.6,80,0.03,RA,OVC,0.03,32.0,WeatherDisplay:10.37,2013-04-16 14:43:00,
2013-04-16 10:48:00,59.3,53.8,30.01,WSW,238,8.5,18.0,82,0.05,RA,OVC,0.05,32.0,WeatherDisplay:10.37,2013-04-16 14:48:00,
2013-04-16 10:53:00,58.8,53.6,30.01,SW,217,11.8,22.0,83,0.08,RA,OVC,0.08,39.0,WeatherDisplay:10.37,2013-04-16 14:53:00,
2013-04-16 10:58:00,58.5,53.7,30.02,SSW,211,8.3,15.0,84,0.09,RA,OVC,0.09,56.0,WeatherDisplay:10.37,2013-04-16 14:58:00,
2013-04-16 11:03:00,58.2,53.7,30.01,SSW,205,7.1,20.7,85,0.10, +RA,OVC,0.10,49.0,WeatherDisplay:10.37,2013-04-16 15:03:00,
2013-04-16 11:08:00,58.1,53.6,30.01,WSW,246,8.8,15.0,85,0.10, +RA,OVC,0.10,93.0,WeatherDisplay:10.37,2013-04-16 15:08:00,
2013-04-16 11:13:00,58.1,53.9,30.00,SSW,205,10.5,17.0,86,0.11,RA,OVC,0.11,142.0,WeatherDisplay:10.37,2013-04-16 15:13:00,
2013-04-16 11:18:00,58.1,53.9,29.98,South,191,6.3,11.5,86,0.11,RA,OVC,0.11,125.0,WeatherDisplay:10.37,2013-04-16 15:18:00,
2013-04-16 11:23:00,58.2,54.0,29.98,SSW,198,7.4,17.3,86,0.11,OVC,,0.11,97.0,WeatherDisplay:10.37,2013-04-16 15:23:00,
2013-04-16 11:28:00,58.2,54.3,29.97,South,179,6.6,17.3,87,0.12,RA,OVC,0.12,107.0,WeatherDisplay:10.37,2013-04-16 15:28:00,
2013-04-16 11:33:00,58.2,54.0,29.98,SW,217,6.7,13.8,86,0.11,RA,OVC,0.12,111.0,WeatherDisplay:10.37,2013-04-16 15:33:00,
2013-04-16 11:38:00,58.4,54.5,29.99,SSW,200,5.0,12.7,87,0.10,OVC,,0.12,118.0,WeatherDisplay:10.37,2013-04-16 15:38:00,
2013-04-16 11:43:00,58.4,54.5,29.99,SW,215,6.0,10.4,87,0.09,OVC,,0.12,114.0,WeatherDisplay:10.37,2013-04-16 15:43:00,
2013-04-16 11:48:00,58.5,54.6,29.98,SSW,199,6.5,11.5,87,0.07,OVC,,0.12,102.0,WeatherDisplay:10.37,2013-04-16 15:48:00,
2013-04-16 11:53:00,58.6,54.7,29.98,South,178,6.7,13.8,87,0.05,OVC,,0.13,97.0,WeatherDisplay:10.37,2013-04-16 15:53:00,
2013-04-16 11:58:00,58.7,54.5,29.97,SW,219,8.6,15.0,86,0.04,RA,OVC,0.13,111.0,WeatherDisplay:10.37,2013-04-16 15:58:00,
2013-04-16 12:03:00,58.8,54.6,29.98,SW,224,6.7,13.8,86,0.03,-RA,OVC,0.13,83.0,WeatherDisplay:10.37,2013-04-16 16:03:00,
2013-04-16 12:08:00,58.9,54.7,29.98,SW,227,6.6,12.7,86,0.03,-RA,OVC,0.13,90.0,WeatherDisplay:10.37,2013-04-16 16:08:00,
2013-04-16 12:13:00,59.0,54.8,29.98,SSW,201,6.0,11.5,86,0.02,-RA,OVC,0.13,95.0,WeatherDisplay:10.37,2013-04-16 16:13:00,
2013-04-16 12:18:00,59.1,54.9,29.99,South,188,5.7,12.0,86,0.03,-RA,OVC,0.14,104.0,WeatherDisplay:10.37,2013-04-16 16:18:00,
2013-04-16 12:23:00,59.2,55.0,29.99,SW,217,4.4,9.2,86,0.03,-RA,OVC,0.14,111.0,WeatherDisplay:10.37,2013-04-16 16:23:00,
2013-04-16 12:28:00,59.3,55.1,30.00,SW,230,4.6,11.5,86,0.02,-RA,OVC,0.14,84.0,WeatherDisplay:10.37,2013-04-16 16:28:00,
2013-04-16 12:33:00,59.3,55.1,30.00,SSW,213,5.8,11.5,86,0.02,-RA,OVC,0.14,116.0,WeatherDisplay:10.37,2013-04-16 16:33:00,
2013-04-16 12:38:00,59.3,55.1,29.99,SW,221,5.5,12.0,86,0.03,-RA,OVC,0.15,123.0,WeatherDisplay:10.37,2013-04-16 16:38:00,
2013-04-16 12:43:00,59.4,55.2,29.99,SW,220,2.7,6.9,86,0.03,-RA,OVC,0.15,125.0,WeatherDisplay:10.37,2013-04-16 16:43:00,
2013-04-16 12:48:00,59.5,55.3,29.99,SW,219,5.0,9.2,86,0.03,-RA,OVC,0.15,199.0,WeatherDisplay:10.37,2013-04-16 16:48:00,
2013-04-16 12:54:00,59.6,55.4,29.99,SW,214,3.9,10.4,86,0.02,-RA,OVC,0.15,251.0,WeatherDisplay:10.37,2013-04-16 16:54:00,
2013-04-16 12:58:00,59.8,55.9,29.99,SW,214,3.4,9.2,87,0.02,-RA,OVC,0.15,190.0,WeatherDisplay:10.37,2013-04-16 16:58:00,
2013-04-16 13:04:00,60.1,56.2,29.99,SW,218,2.7,6.0,87,0.02,OVC,,0.15,153.0,WeatherDisplay:10.37,2013-04-16 17:04:00,
2013-04-16 13:09:00,60.4,56.2,29.99,WSW,245,3.9,12.7,86,0.02,OVC,,0.15,116.0,WeatherDisplay:10.37,2013-04-16 17:09:00,
2013-04-16 13:14:00,60.6,56.4,29.99,SW,233,5.1,8.1,86,0.02,OVC,,0.15,169.0,WeatherDisplay:10.37,2013-04-16 17:14:00,
2013-04-16 13:19:00,60.9,56.4,29.99,SW,215,5.4,10.4,85,0.01,OVC,,0.15,258.0,WeatherDisplay:10.37,2013-04-16 17:19:00,
2013-04-16 13:24:00,61.3,56.8,29.99,WSW,241,5.8,10.4,85,0.01,OVC,,0.15,367.0,WeatherDisplay:10.37,2013-04-16 17:24:00,
2013-04-16 13:29:00,61.8,56.9,29.99,WSW,237,4.7,11.5,84,0.01,OVC,,0.15,155.0,WeatherDisplay:10.37,2013-04-16 17:29:00,
2013-04-16 13:34:00,62.3,56.7,29.99,SSW,207,8.4,12.0,82,0.01,OVC,,0.15,109.0,WeatherDisplay:10.37,2013-04-16 17:34:00,
2013-04-16 13:39:00,62.6,56.7,29.99,WSW,243,6.7,16.1,81,0.00,OVC,,0.15,67.0,WeatherDisplay:10.37,2013-04-16 17:39:00,
2013-04-16 13:44:00,62.8,56.5,29.99,WSW,242,4.1,12.7,80,0.00,OVC,,0.15,44.0,WeatherDisplay:10.37,2013-04-16 17:44:00,
2013-04-16 13:49:00,62.8,56.5,29.99,SW,230,4.7,15.0,80,0.00,OVC,,0.15,53.0,WeatherDisplay:10.37,2013-04-16 17:49:00,
2013-04-16 13:54:00,62.7,56.1,29.99,WSW,238,8.6,19.6,79,0.00,OVC,,0.15,32.0,WeatherDisplay:10.37,2013-04-16 17:54:00,
2013-04-16 13:59:00,62.7,56.1,29.99,WSW,254,7.9,11.5,79,0.00,OVC,,0.15,40.0,WeatherDisplay:10.37,2013-04-16 17:59:00,
2013-04-16 14:04:00,62.5,55.5,29.99,West,267,6.0,17.3,78,0.00,OVC,,0.15,90.0,WeatherDisplay:10.37,2013-04-16 18:04:00,
2013-04-16 14:09:00,61.0,52.7,30.00,WSW,252,11.1,17.3,74,0.00,OVC,,0.15,91.0,WeatherDisplay:10.37,2013-04-16 18:09:00,
2013-04-16 14:14:00,58.7,50.8,30.01,West,271,9.2,19.6,75,0.00,OVC,,0.15,76.0,WeatherDisplay:10.37,2013-04-16 18:14:00,
2013-04-16 14:19:00,56.3,49.9,30.01,WSW,258,9.7,16.1,79,0.00,OVC,,0.15,81.0,WeatherDisplay:10.37,2013-04-16 18:19:00,
2013-04-16 14:24:00,55.2,49.5,30.01,WSW,257,7.1,17.3,81,0.00,OVC,,0.15,70.0,WeatherDisplay:10.37,2013-04-16 18:24:00,
2013-04-16 14:29:00,54.4,49.3,30.00,West,260,7.9,12.7,83,0.00,OVC,,0.15,70.0,WeatherDisplay:10.37,2013-04-16 18:29:00,
2013-04-16 14:34:00,54.0,49.3,30.00,West,259,6.4,11.5,84,0.00,OVC,,0.15,65.0,WeatherDisplay:10.37,2013-04-16 18:34:00,
2013-04-16 14:39:00,53.5,49.1,30.00,West,261,7.8,11.5,85,0.00,OVC,,0.15,60.0,WeatherDisplay:10.37,2013-04-16 18:39:00,
2013-04-16 14:44:00,53.3,49.2,30.00,WSW,256,6.8,11.5,86,0.00,OVC,,0.15,70.0,WeatherDisplay:10.37,2013-04-16 18:44:00,
2013-04-16 14:49:00,53.2,49.1,30.00,WSW,253,6.2,11.5,86,0.00,OVC,,0.15,33.0,WeatherDisplay:10.37,2013-04-16 18:49:00,
2013-04-16 14:54:00,53.1,49.3,30.00,WSW,254,8.8,13.8,87,0.00,OVC,,0.15,28.0,WeatherDisplay:10.37,2013-04-16 18:54:00,
2013-04-16 14:59:00,52.9,49.1,30.00,WSW,257,4.8,10.4,87,0.00,OVC,,0.15,30.0,WeatherDisplay:10.37,2013-04-16 18:59:00,
2013-04-16 15:04:00,52.8,49.0,30.01,WSW,251,6.2,11.5,87,0.00,-RA,OVC,0.15,23.0,WeatherDisplay:10.37,2013-04-16 19:04:00,
2013-04-16 15:09:00,52.6,49.1,30.01,WSW,250,6.5,11.5,88,0.00,-RA,OVC,0.15,37.0,WeatherDisplay:10.37,2013-04-16 19:09:00,
2013-04-16 15:14:00,52.5,49.0,30.01,WSW,254,5.4,11.5,88,0.00,-RA,OVC,0.15,16.0,WeatherDisplay:10.37,2013-04-16 19:14:00,
2013-04-16 15:19:00,52.4,48.9,30.01,WSW,251,5.6,10.4,88,0.00,-RA,OVC,0.15,19.0,WeatherDisplay:10.37,2013-04-16 19:19:00,
2013-04-16 15:24:00,52.4,49.3,30.01,WSW,251,7.6,12.7,89,0.01,-RA,OVC,0.16,21.0,WeatherDisplay:10.37,2013-04-16 19:24:00,
2013-04-16 15:29:00,52.4,49.3,30.02,WSW,251,8.7,14.0,89,0.01,-RA,OVC,0.16,18.0,WeatherDisplay:10.37,2013-04-16 19:29:00,
2013-04-16 15:34:00,52.4,49.3,30.02,West,259,7.8,11.5,89,0.01,-RA,OVC,0.16,14.0,WeatherDisplay:10.37,2013-04-16 19:34:00,
2013-04-16 15:39:00,52.4,49.3,30.02,WSW,253,7.2,11.5,89,0.01,-RA,OVC,0.16,30.0,WeatherDisplay:10.37,2013-04-16 19:39:00,
2013-04-16 15:44:00,52.4,49.6,30.02,WSW,242,5.9,11.5,90,0.02,-RA,OVC,0.17,46.0,WeatherDisplay:10.37,2013-04-16 19:44:00,
2013-04-16 15:49:00,52.6,49.8,30.01,WSW,241,6.4,10.0,90,0.03,-RA,OVC,0.18,56.0,WeatherDisplay:10.37,2013-04-16 19:49:00,
2013-04-16 15:54:00,52.6,49.8,30.01,WSW,254,6.3,10.4,90,0.03,-RA,OVC,0.18,40.0,WeatherDisplay:10.37,2013-04-16 19:54:00,
2013-04-16 15:59:00,52.7,49.8,30.01,WSW,249,6.7,9.0,90,0.03,-RA,OVC,0.18,40.0,WeatherDisplay:10.37,2013-04-16 19:59:00,
2013-04-16 16:04:00,52.7,49.8,30.01,WSW,246,7.5,11.5,90,0.04,RA,OVC,0.19,30.0,WeatherDisplay:10.37,2013-04-16 20:04:00,
2013-04-16 16:09:00,52.7,49.8,30.02,WSW,253,7.8,12.0,90,0.04,RA,OVC,0.19,19.0,WeatherDisplay:10.37,2013-04-16 20:09:00,
2013-04-16 16:14:00,52.7,49.8,30.02,WSW,250,5.5,9.2,90,0.05,RA,OVC,0.20,35.0,WeatherDisplay:10.37,2013-04-16 20:14:00,
2013-04-16 16:19:00,52.7,50.1,30.02,WSW,250,5.5,9.2,91,0.05,RA,OVC,0.20,19.0,WeatherDisplay:10.37,2013-04-16 20:19:00,
2013-04-16 16:24:00,52.7,49.8,30.02,WSW,248,6.1,11.5,90,0.04,OVC,,0.20,42.0,WeatherDisplay:10.37,2013-04-16 20:24:00,
2013-04-16 16:29:00,52.6,49.8,30.03,WSW,254,5.3,11.5,90,0.06,RA,OVC,0.22,26.0,WeatherDisplay:10.37,2013-04-16 20:29:00,
2013-04-16 16:34:00,52.6,50.0,30.03,WSW,254,3.8,8.1,91,0.06,-RA,OVC,0.22,35.0,WeatherDisplay:10.37,2013-04-16 20:34:00,
2013-04-16 16:39:00,52.6,50.0,30.04,WSW,258,5.5,12.7,91,0.08,-RA,OVC,0.24,51.0,WeatherDisplay:10.37,2013-04-16 20:39:00,
2013-04-16 16:44:00,52.6,50.0,30.04,West,269,5.6,8.0,91,0.08,-RA,OVC,0.25,39.0,WeatherDisplay:10.37,2013-04-16 20:44:00,
2013-04-16 16:49:00,52.4,49.8,30.04,West,267,1.9,5.8,91,0.08,-RA,OVC,0.26,60.0,WeatherDisplay:10.37,2013-04-16 20:49:00,
2013-04-16 16:54:00,52.2,49.7,30.05,West,263,5.6,9.2,91,0.08,-RA,OVC,0.26,60.0,WeatherDisplay:10.37,2013-04-16 20:54:00,
2013-04-16 16:59:00,52.1,49.6,30.05,West,271,4.4,7.0,91,0.08,-RA,OVC,0.26,33.0,WeatherDisplay:10.37,2013-04-16 20:59:00,
2013-04-16 17:04:00,51.9,49.1,30.06,West,265,2.1,6.9,90,0.08,-RA,OVC,0.27,19.0,WeatherDisplay:10.37,2013-04-16 21:04:00,
2013-04-16 17:09:00,51.7,49.2,30.06,West,263,4.5,7.0,91,0.08,-RA,OVC,0.27,23.0,WeatherDisplay:10.37,2013-04-16 21:09:00,
2013-04-16 17:14:00,51.5,49.0,30.07,WSW,257,6.8,10.4,91,0.08,-RA,OVC,0.28,30.0,WeatherDisplay:10.37,2013-04-16 21:14:00,
2013-04-16 17:19:00,51.4,48.9,30.07,West,259,3.2,9.2,91,0.08,-RA,OVC,0.28,35.0,WeatherDisplay:10.37,2013-04-16 21:19:00,
2013-04-16 17:24:00,51.3,48.8,30.08,WSW,257,6.0,10.4,91,0.09,-RA,OVC,0.29,26.0,WeatherDisplay:10.37,2013-04-16 21:24:00,
2013-04-16 17:29:00,51.1,48.6,30.08,WSW,252,5.4,10.4,91,0.08,-RA,OVC,0.30,25.0,WeatherDisplay:10.37,2013-04-16 21:29:00,
2013-04-16 17:34:00,51.0,48.5,30.08,WSW,257,5.4,8.1,91,0.08,-RA,OVC,0.30,30.0,WeatherDisplay:10.37,2013-04-16 21:34:00,
2013-04-16 17:39:00,50.9,48.4,30.09,West,260,6.3,8.0,91,0.06,-RA,OVC,0.30,19.0,WeatherDisplay:10.37,2013-04-16 21:39:00,
2013-04-16 17:44:00,50.8,48.3,30.09,West,259,4.9,12.7,91,0.06,-RA,OVC,0.31,19.0,WeatherDisplay:10.37,2013-04-16 21:44:00,
2013-04-16 17:49:00,50.8,48.3,30.09,West,259,3.6,6.0,91,0.05,-RA,OVC,0.31,25.0,WeatherDisplay:10.37,2013-04-16 21:49:00,
2013-04-16 17:54:00,50.8,48.3,30.10,West,259,5.2,7.0,91,0.05,-RA,OVC,0.31,33.0,WeatherDisplay:10.37,2013-04-16 21:54:00,
2013-04-16 17:59:00,50.9,48.4,30.10,West,259,3.5,6.0,91,0.05,-RA,OVC,0.31,23.0,WeatherDisplay:10.37,2013-04-16 21:59:00,
2013-04-16 18:04:00,51.0,48.5,30.10,West,259,4.1,6.0,91,0.04,-RA,OVC,0.31,14.0,WeatherDisplay:10.37,2013-04-16 22:04:00,
2013-04-16 18:09:00,51.0,48.5,30.10,West,259,3.5,5.8,91,0.04,-RA,OVC,0.31,30.0,WeatherDisplay:10.37,2013-04-16 22:09:00,
2013-04-16 18:14:00,51.2,48.7,30.10,West,259,2.6,5.8,91,0.03,-RA,OVC,0.31,21.0,WeatherDisplay:10.37,2013-04-16 22:14:00,
2013-04-16 18:19:00,51.3,48.8,30.10,WSW,258,6.0,7.0,91,0.03,-RA,OVC,0.31,19.0,WeatherDisplay:10.37,2013-04-16 22:19:00,
2013-04-16 18:24:00,51.4,48.9,30.10,WSW,257,4.7,8.1,91,0.02,-RA,OVC,0.31,35.0,WeatherDisplay:10.37,2013-04-16 22:24:00,
2013-04-16 18:29:00,51.5,49.0,30.11,WSW,254,5.9,8.1,91,0.01,-RA,OVC,0.31,28.0,WeatherDisplay:10.37,2013-04-16 22:29:00,
2013-04-16 18:34:00,51.5,49.0,30.11,WSW,248,8.7,12.0,91,0.01,-RA,OVC,0.31,54.0,WeatherDisplay:10.37,2013-04-16 22:34:00,
2013-04-16 18:39:00,51.5,49.0,30.11,WSW,252,6.1,11.5,91,0.01,-RA,OVC,0.31,49.0,WeatherDisplay:10.37,2013-04-16 22:39:00,
2013-04-16 18:44:00,51.5,49.0,30.11,West,259,5.9,10.4,91,0.00,-RA,OVC,0.31,40.0,WeatherDisplay:10.37,2013-04-16 22:44:00,
2013-04-16 18:49:00,51.4,48.9,30.11,WSW,258,4.8,8.1,91,0.00,-RA,OVC,0.31,42.0,WeatherDisplay:10.37,2013-04-16 22:49:00,
2013-04-16 18:54:00,51.4,48.9,30.11,WSW,250,5.9,11.5,91,0.00,-RA,OVC,0.31,28.0,WeatherDisplay:10.37,2013-04-16 22:54:00,
2013-04-16 18:59:00,51.3,48.8,30.12,West,261,9.1,14.0,91,0.00,-RA,OVC,0.31,28.0,WeatherDisplay:10.37,2013-04-16 22:59:00,
2013-04-16 19:04:00,51.2,48.7,30.12,West,259,6.2,11.5,91,0.00,OVC,,0.31,23.0,WeatherDisplay:10.37,2013-04-16 23:04:00,
2013-04-16 19:09:00,51.1,48.6,30.13,West,267,5.9,9.2,91,0.00,OVC,,0.31,23.0,WeatherDisplay:10.37,2013-04-16 23:09:00,
2013-04-16 19:14:00,50.9,48.4,30.13,West,260,9.9,14.0,91,0.00,OVC,,0.31,14.0,WeatherDisplay:10.37,2013-04-16 23:14:00,
2013-04-16 19:19:00,50.8,48.0,30.13,West,259,6.4,11.5,90,0.00,OVC,,0.31,12.0,WeatherDisplay:10.37,2013-04-16 23:19:00,
2013-04-16 19:24:00,50.6,47.8,30.14,West,270,6.6,11.5,90,0.00,OVC,,0.31,12.0,WeatherDisplay:10.37,2013-04-16 23:24:00,
2013-04-16 19:29:00,50.5,47.7,30.14,WSW,254,3.8,10.4,90,0.00,OVC,,0.31,12.0,WeatherDisplay:10.37,2013-04-16 23:29:00,
2013-04-16 19:34:00,50.4,47.6,30.14,West,264,5.9,12.7,90,0.00,OVC,,0.31,11.0,WeatherDisplay:10.37,2013-04-16 23:34:00,
2013-04-16 19:39:00,50.3,47.5,30.14,WSW,257,7.0,12.0,90,0.00,OVC,,0.31,9.0,WeatherDisplay:10.37,2013-04-16 23:39:00,
2013-04-16 19:44:00,50.2,47.4,30.15,WSW,254,7.0,11.5,90,0.00,OVC,,0.31,7.0,WeatherDisplay:10.37,2013-04-16 23:44:00,
2013-04-16 19:49:00,50.1,47.3,30.15,WSW,256,6.1,11.5,90,0.00,OVC,,0.31,5.0,WeatherDisplay:10.37,2013-04-16 23:49:00,
2013-04-16 19:54:00,50.1,47.3,30.16,WSW,252,3.0,11.5,90,0.00,OVC,,0.31,0.0,WeatherDisplay:10.37,2013-04-16 23:54:00,
2013-04-16 19:59:00,49.9,47.1,30.16,West,269,4.1,10.4,90,0.00,OVC,,0.31,0.0,WeatherDisplay:10.37,2013-04-16 23:59:00,
2013-04-16 20:04:00,49.8,47.0,30.16,WSW,257,6.5,10.4,90,0.00,OVC,,0.31,0.0,WeatherDisplay:10.37,2013-04-17 00:04:00,
2013-04-16 20:09:00,49.7,46.9,30.16,West,259,3.0,7.0,90,0.00,OVC,,0.31,0.0,WeatherDisplay:10.37,2013-04-17 00:09:00,
2013-04-16 20:14:00,49.6,46.8,30.17,West,279,5.2,8.1,90,0.00,OVC,,0.31,0.0,WeatherDisplay:10.37,2013-04-17 00:14:00,
2013-04-16 20:19:00,49.5,46.7,30.17,West,275,3.7,6.9,90,0.00,OVC,,0.31,0.0,WeatherDisplay:10.37,2013-04-17 00:19:00,
2013-04-16 20:24:00,49.3,46.5,30.17,West,275,1.6,4.0,90,0.00,OVC,,0.31,0.0,WeatherDisplay:10.37,2013-04-17 00:24:00,
2013-04-16 20:30:00,49.2,46.4,30.18,West,275,4.4,7.0,90,0.00,OVC,,0.31,0.0,WeatherDisplay:10.37,2013-04-17 00:30:00,
2013-04-16 20:34:00,49.0,46.2,30.18,West,278,3.6,6.0,90,0.00,OVC,,0.31,0.0,WeatherDisplay:10.37,2013-04-17 00:34:00,
2013-04-16 20:40:00,48.9,46.1,30.18,WNW,284,4.2,8.1,90,0.00,OVC,,0.31,0.0,WeatherDisplay:10.37,2013-04-17 00:40:00,
2013-04-16 20:45:00,48.7,45.9,30.17,WNW,288,3.2,5.8,90,0.00,OVC,,0.31,0.0,WeatherDisplay:10.37,2013-04-17 00:45:00,
2013-04-16 20:50:00,48.6,45.8,30.18,WNW,285,3.3,7.0,90,0.00,OVC,,0.31,0.0,WeatherDisplay:10.37,2013-04-17 00:50:00,
2013-04-16 20:55:00,48.4,45.6,30.18,West,277,3.2,8.1,90,0.00,OVC,,0.31,0.0,WeatherDisplay:10.37,2013-04-17 00:55:00,
2013-04-16 21:00:00,48.3,45.5,30.18,WNW,290,2.8,6.9,90,0.00,OVC,,0.31,0.0,WeatherDisplay:10.37,2013-04-17 01:00:00,
2013-04-16 21:05:00,48.1,45.3,30.19,WNW,289,3.4,5.0,90,0.00,BKN,OVC,0.31,0.0,WeatherDisplay:10.37,2013-04-17 01:05:00,
2013-04-16 21:10:00,47.8,45.0,30.19,WNW,296,6.9,8.0,90,0.00,RA,OVC,0.31,0.0,WeatherDisplay:10.37,2013-04-17 01:10:00,
2013-04-16 21:15:00,47.6,44.8,30.19,WSW,251,8.5,11.0,90,0.00,BKN,OVC,0.31,0.0,WeatherDisplay:10.37,2013-04-17 01:15:00,
2013-04-16 21:20:00,47.3,44.5,30.20,West,259,4.9,12.7,90,0.00,BKN,OVC,0.31,0.0,WeatherDisplay:10.37,2013-04-17 01:20:00,
2013-04-16 21:25:00,47.1,44.3,30.20,West,259,2.0,6.9,90,0.00,BKN,OVC,0.31,0.0,WeatherDisplay:10.37,2013-04-17 01:25:00,
2013-04-16 21:30:00,46.9,44.1,30.21,West,263,5.0,9.2,90,0.00,BKN,OVC,0.31,0.0,WeatherDisplay:10.37,2013-04-17 01:30:00,
2013-04-16 21:35:00,46.6,43.8,30.21,West,265,4.0,6.0,90,0.00,BKN,OVC,0.31,0.0,WeatherDisplay:10.37,2013-04-17 01:35:00,
2013-04-16 21:40:00,46.4,43.6,30.21,West,264,4.5,6.0,90,0.00,BKN,OVC,0.31,0.0,WeatherDisplay:10.37,2013-04-17 01:40:00,
2013-04-16 21:45:00,46.2,43.4,30.21,West,264,3.1,5.0,90,0.00,BKN,OVC,0.31,0.0,WeatherDisplay:10.37,2013-04-17 01:45:00,
2013-04-16 21:50:00,46.0,43.2,30.21,West,264,2.5,4.0,90,0.00,BKN,OVC,0.31,0.0,WeatherDisplay:10.37,2013-04-17 01:50:00,
2013-04-16 21:55:00,45.9,43.1,30.22,West,264,1.3,3.5,90,0.00,BKN,OVC,0.31,0.0,WeatherDisplay:10.37,2013-04-17 01:55:00,
2013-04-16 22:00:00,45.8,43.0,30.22,West,264,1.5,3.5,90,0.00,BKN,OVC,0.31,0.0,WeatherDisplay:10.37,2013-04-17 02:00:00,
2013-04-16 22:05:00,45.6,42.8,30.22,West,264,1.6,3.5,90,0.00,OVC,,0.31,0.0,WeatherDisplay:10.37,2013-04-17 02:05:00,
2013-04-16 22:10:00,45.5,42.7,30.23,West,264,0.3,3.5,90,0.00,OVC,,0.31,0.0,WeatherDisplay:10.37,2013-04-17 02:10:00,
2013-04-16 22:15:00,45.5,42.7,30.23,West,264,2.8,4.0,90,0.00,OVC,,0.31,0.0,WeatherDisplay:10.37,2013-04-17 02:15:00,
2013-04-16 22:20:00,45.4,42.6,30.23,West,264,0.3,2.3,90,0.00,OVC,,0.31,0.0,WeatherDisplay:10.37,2013-04-17 02:20:00,
2013-04-16 22:25:00,45.3,42.8,30.23,West,264,1.4,3.5,91,0.00,OVC,,0.31,0.0,WeatherDisplay:10.37,2013-04-17 02:25:00,
2013-04-16 22:30:00,45.2,42.7,30.23,West,264,0.8,3.5,91,0.00,OVC,,0.31,0.0,WeatherDisplay:10.37,2013-04-17 02:30:00,
2013-04-16 22:35:00,45.1,42.3,30.23,West,264,0.0,0.0,90,0.00,OVC,,0.31,0.0,WeatherDisplay:10.37,2013-04-17 02:35:00,
2013-04-16 22:40:00,45.1,42.3,30.24,West,264,0.0,0.0,90,0.00,OVC,,0.31,0.0,WeatherDisplay:10.37,2013-04-17 02:40:00,
2013-04-16 22:45:00,45.0,42.5,30.24,West,264,0.0,0.0,91,0.00,OVC,,0.31,0.0,WeatherDisplay:10.37,2013-04-17 02:45:00,
2013-04-16 22:50:00,45.0,42.5,30.24,West,264,0.0,0.0,91,0.00,OVC,,0.31,0.0,WeatherDisplay:10.37,2013-04-17 02:50:00,
2013-04-16 22:55:00,45.0,42.5,30.24,West,264,0.0,1.2,91,0.00,OVC,,0.31,0.0,WeatherDisplay:10.37,2013-04-17 02:55:00,
2013-04-16 23:00:00,44.9,42.4,30.23,West,264,0.0,0.0,91,0.00,OVC,,0.31,0.0,WeatherDisplay:10.37,2013-04-17 03:00:00,
2013-04-16 23:05:00,44.9,42.4,30.23,West,264,0.0,0.0,91,0.00,OVC,,0.31,0.0,WeatherDisplay:10.37,2013-04-17 03:05:00,
2013-04-16 23:10:00,44.9,42.4,30.23,West,264,0.0,0.0,91,0.00,OVC,,0.31,0.0,WeatherDisplay:10.37,2013-04-17 03:10:00,
2013-04-16 23:15:00,44.9,42.4,30.23,West,264,0.1,1.2,91,0.00,OVC,,0.31,0.0,WeatherDisplay:10.37,2013-04-17 03:15:00,
2013-04-16 23:20:00,44.9,42.4,30.23,West,264,0.0,0.0,91,0.00,OVC,,0.31,0.0,WeatherDisplay:10.37,2013-04-17 03:20:00,
2013-04-16 23:27:00,44.9,42.4,30.23,West,264,0.0,0.0,91,0.00,OVC,,0.31,0.0,WeatherDisplay:10.37,2013-04-17 03:27:00,
2013-04-16 23:32:00,44.9,42.4,30.23,West,264,0.0,0.0,91,0.00,OVC,,0.31,0.0,WeatherDisplay:10.37,2013-04-17 03:32:00,
2013-04-16 23:37:00,45.0,42.5,30.23,West,264,0.0,0.0,91,0.00,OVC,,0.31,0.0,WeatherDisplay:10.37,2013-04-17 03:37:00,
2013-04-16 23:42:00,45.0,42.5,30.23,West,264,0.0,0.0,91,0.00,OVC,,0.31,0.0,WeatherDisplay:10.37,2013-04-17 03:42:00,
2013-04-16 23:47:00,44.9,42.4,30.23,West,264,0.0,0.0,91,0.00,OVC,,0.31,0.0,WeatherDisplay:10.37,2013-04-17 03:47:00,
2013-04-16 23:52:00,45.0,42.5,30.23,West,264,0.0,0.0,91,0.00,OVC,,0.31,0.0,WeatherDisplay:10.37,2013-04-17 03:52:00,
2013-04-16 23:57:00,45.0,42.5,30.24,West,264,0.0,0.0,91,0.00,OVC,,0.31,0.0,WeatherDisplay:10.37,2013-04-17 03:57:00,